Tracking 30102 objects as of 13-Dec-2024
HD Live streaming from Space Station
objects crossing your sky now

STARLINK-31810

Track STARLINK-31810 now!
10-day predictions
STARLINK-31810 is classified as:


NORAD ID: 59799
Int'l Code: 2024-093T
Perigee: 449.7 km
Apogee: 452.6 km
Inclination: 43.0 °
Period: 93.5 minutes
Semi major axis: 6822 km
RCS: Unknown
Launch date: May 18, 2024
Source: United States (US)
Launch site: AIR FORCE EASTERN TEST RANGE (AFETR)
Your satellite tracking list
Your tracking list is empty




NASA's NSSDC Master Catalog

Two Line Element Set (TLE):
1 59799U 24093T   24347.78406337 -.00000188  00000-0  27643-5 0  9990
2 59799  43.0029 249.5590 0002128 262.2029  97.8585 15.40701609 33482
Source of the keplerian elements: AFSPC